Time,TemperatureF,DewpointF,PressureIn,WindDirection,WindDirectionDegrees,WindSpeedMPH,WindSpeedGustMPH,Humidity,HourlyPrecipIn,Conditions,Clouds,dailyrainin,SoftwareType,DateUTC
2015-04-19 00:03:00,47.1,25.8,29.18,NNE,32,3.6,4.9,43,0.00,,,-99.99,VWS V14.00,2015-04-19 04:03:00,
2015-04-19 00:08:00,47.1,26.3,29.18,NNE,26,3.6,6.7,44,0.00,,,-99.99,VWS V14.00,2015-04-19 04:08:00,
2015-04-19 00:13:00,46.9,26.2,29.18,NNE,26,6.3,7.6,44,0.00,,,-99.99,VWS V14.00,2015-04-19 04:13:00,
2015-04-19 00:18:00,46.9,26.7,29.18,ENE,60,0.0,7.6,45,0.00,,,-99.99,VWS V14.00,2015-04-19 04:18:00,
2015-04-19 00:23:00,46.8,26.6,29.18,NE,42,3.6,7.6,45,0.00,,,-99.99,VWS V14.00,2015-04-19 04:23:00,
2015-04-19 00:28:00,46.6,26.4,29.18,NE,45,4.0,7.6,45,0.00,,,-99.99,VWS V14.00,2015-04-19 04:28:00,
2015-04-19 00:33:00,46.4,26.8,29.18,NNE,19,3.1,5.4,46,0.00,,,-99.99,VWS V14.00,2015-04-19 04:33:00,
2015-04-19 00:38:00,46.4,26.8,29.18,NE,49,3.1,6.3,46,0.00,,,-99.99,VWS V14.00,2015-04-19 04:38:00,
2015-04-19 00:43:00,46.4,26.8,29.15,NE,53,0.0,8.3,46,0.00,,,-99.99,VWS V14.00,2015-04-19 04:43:00,
2015-04-19 00:48:00,46.4,26.8,29.15,NE,41,4.0,8.7,46,0.00,,,-99.99,VWS V14.00,2015-04-19 04:48:00,
2015-04-19 00:59:00,45.7,26.1,29.15,East,95,0.0,8.7,46,0.00,,,-99.99,VWS V14.00,2015-04-19 04:59:00,
2015-04-19 01:04:00,45.3,26.3,29.15,NNE,29,0.0,3.1,47,0.00,,,-99.99,VWS V14.00,2015-04-19 05:04:00,
2015-04-19 01:09:00,45.1,26.1,29.15,ENE,74,0.0,5.8,47,0.00,,,-99.99,VWS V14.00,2015-04-19 05:09:00,
2015-04-19 01:14:00,45.1,26.1,29.15,East,81,0.0,0.0,47,0.00,,,-99.99,VWS V14.00,2015-04-19 05:14:00,
2015-04-19 01:19:00,45.3,26.8,29.15,NE,44,0.0,4.9,48,0.00,,,-99.99,VWS V14.00,2015-04-19 05:19:00,
2015-04-19 01:24:00,45.1,26.6,29.15,NE,54,0.0,4.9,48,0.00,,,-99.99,VWS V14.00,2015-04-19 05:24:00,
2015-04-19 01:29:00,45.1,26.1,29.15,NE,41,0.0,6.3,47,0.00,,,-99.99,VWS V14.00,2015-04-19 05:29:00,
2015-04-19 01:34:00,44.6,25.6,29.15,ESE,114,0.0,0.0,47,0.00,,,-99.99,VWS V14.00,2015-04-19 05:34:00,
2015-04-19 01:39:00,44.4,25.5,29.15,ESE,114,0.0,0.0,47,0.00,,,-99.99,VWS V14.00,2015-04-19 05:39:00,
2015-04-19 01:44:00,44.4,25.5,29.15,East,83,0.0,0.0,47,0.00,,,-99.99,VWS V14.00,2015-04-19 05:44:00,
2015-04-19 01:49:00,44.4,25.5,29.15,NE,45,0.0,3.1,47,0.00,,,-99.99,VWS V14.00,2015-04-19 05:49:00,
2015-04-19 01:54:00,44.6,25.6,29.15,NE,40,3.1,3.6,47,0.00,,,-99.99,VWS V14.00,2015-04-19 05:54:00,
2015-04-19 01:59:00,45.0,26.0,29.15,ENE,71,0.0,4.9,47,0.00,,,-99.99,VWS V14.00,2015-04-19 05:59:00,
2015-04-19 02:05:00,45.0,26.0,29.15,ENE,63,0.0,4.0,47,0.00,,,-99.99,VWS V14.00,2015-04-19 06:05:00,
2015-04-19 02:10:00,45.1,26.1,29.15,NE,56,0.0,5.8,47,0.00,,,-99.99,VWS V14.00,2015-04-19 06:10:00,
2015-04-19 02:15:00,45.1,26.1,29.15,NE,51,2.7,6.3,47,0.00,,,-99.99,VWS V14.00,2015-04-19 06:15:00,
2015-04-19 02:20:00,45.0,26.0,29.15,ENE,75,0.0,6.3,47,0.00,,,-99.99,VWS V14.00,2015-04-19 06:20:00,
2015-04-19 02:25:00,44.8,25.3,29.15,SE,129,0.0,6.3,46,0.00,,,-99.99,VWS V14.00,2015-04-19 06:25:00,
2015-04-19 02:30:00,44.8,25.8,29.15,NNE,24,2.7,6.7,47,0.00,,,-99.99,VWS V14.00,2015-04-19 06:30:00,
2015-04-19 02:35:00,44.8,25.8,29.15,ENE,70,0.0,5.4,47,0.00,,,-99.99,VWS V14.00,2015-04-19 06:35:00,
2015-04-19 02:40:00,44.8,25.8,29.15,East,90,3.1,5.8,47,0.00,,,-99.99,VWS V14.00,2015-04-19 06:40:00,
2015-04-19 02:45:00,44.8,25.8,29.15,ENE,59,0.0,5.8,47,0.00,,,-99.99,VWS V14.00,2015-04-19 06:45:00,
2015-04-19 02:50:00,44.8,25.8,29.15,ESE,118,0.0,5.8,47,0.00,,,-99.99,VWS V14.00,2015-04-19 06:50:00,
2015-04-19 02:55:00,44.6,25.6,29.15,East,96,3.6,5.8,47,0.00,,,-99.99,VWS V14.00,2015-04-19 06:55:00,
2015-04-19 03:00:00,44.4,25.5,29.15,East,97,0.0,0.0,47,0.00,,,-99.99,VWS V14.00,2015-04-19 07:00:00,
2015-04-19 03:05:00,44.6,26.1,29.15,ENE,60,0.0,7.6,48,0.00,,,-99.99,VWS V14.00,2015-04-19 07:05:00,
2015-04-19 03:10:00,44.4,25.5,29.15,ENE,57,0.0,7.6,47,0.00,,,-99.99,VWS V14.00,2015-04-19 07:10:00,
2015-04-19 03:15:00,44.2,25.8,29.15,East,90,0.0,7.6,48,0.00,,,-99.99,VWS V14.00,2015-04-19 07:15:00,
2015-04-19 03:20:00,44.2,25.8,29.15,East,81,0.0,7.6,48,0.00,,,-99.99,VWS V14.00,2015-04-19 07:20:00,
2015-04-19 03:25:00,44.2,26.3,29.15,ENE,63,0.0,7.6,49,0.00,,,-99.99,VWS V14.00,2015-04-19 07:25:00,
2015-04-19 03:30:00,44.2,26.3,29.15,ENE,64,0.0,0.0,49,0.00,,,-99.99,VWS V14.00,2015-04-19 07:30:00,
2015-04-19 03:35:00,44.1,26.1,29.15,ENE,65,0.0,5.4,49,0.00,,,-99.99,VWS V14.00,2015-04-19 07:35:00,
2015-04-19 03:40:00,43.9,26.0,29.15,East,88,5.4,6.3,49,0.00,,,-99.99,VWS V14.00,2015-04-19 07:40:00,
2015-04-19 03:45:00,43.9,26.0,29.12,East,84,0.0,6.3,49,0.00,,,-99.99,VWS V14.00,2015-04-19 07:45:00,
2015-04-19 03:50:00,43.9,26.5,29.12,NE,49,3.6,6.3,50,0.00,,,-99.99,VWS V14.00,2015-04-19 07:50:00,
2015-04-19 03:55:00,44.1,26.6,29.12,ESE,120,0.0,6.3,50,0.00,,,-99.99,VWS V14.00,2015-04-19 07:55:00,
2015-04-19 04:01:00,44.1,26.6,29.12,East,98,0.0,2.7,50,0.00,,,-99.99,VWS V14.00,2015-04-19 08:01:00,
2015-04-19 04:06:00,44.1,26.6,29.12,East,83,0.0,3.6,50,0.00,,,-99.99,VWS V14.00,2015-04-19 08:06:00,
2015-04-19 04:11:00,44.1,26.1,29.12,ESE,114,0.0,4.0,49,0.00,,,-99.99,VWS V14.00,2015-04-19 08:11:00,
2015-04-19 04:16:00,44.2,26.3,29.12,ENE,70,4.0,5.8,49,0.00,,,-99.99,VWS V14.00,2015-04-19 08:16:00,
2015-04-19 04:21:00,44.4,26.5,29.12,East,92,3.1,5.8,49,0.00,,,-99.99,VWS V14.00,2015-04-19 08:21:00,
2015-04-19 04:26:00,44.8,26.8,29.12,NE,53,0.0,5.8,49,0.00,,,-99.99,VWS V14.00,2015-04-19 08:26:00,
2015-04-19 04:31:00,44.8,26.8,29.12,East,101,0.0,2.7,49,0.00,,,-99.99,VWS V14.00,2015-04-19 08:31:00,
2015-04-19 04:36:00,44.8,26.8,29.12,ESE,122,3.1,3.6,49,0.00,,,-99.99,VWS V14.00,2015-04-19 08:36:00,
2015-04-19 04:41:00,44.8,26.3,29.12,East,84,2.2,4.0,48,0.00,,,-99.99,VWS V14.00,2015-04-19 08:41:00,
2015-04-19 04:46:00,44.8,26.8,29.12,SE,131,0.0,5.8,49,0.00,,,-99.99,VWS V14.00,2015-04-19 08:46:00,
2015-04-19 04:51:00,45.0,26.5,29.12,East,92,0.0,5.8,48,0.00,,,-99.99,VWS V14.00,2015-04-19 08:51:00,
2015-04-19 04:56:00,44.8,26.3,29.12,SE,124,0.0,5.8,48,0.00,,,-99.99,VWS V14.00,2015-04-19 08:56:00,
2015-04-19 05:01:00,44.8,26.8,29.12,East,83,2.7,4.0,49,0.00,,,-99.99,VWS V14.00,2015-04-19 09:01:00,
2015-04-19 05:06:00,44.6,26.1,29.12,East,88,5.8,5.8,48,0.00,,,-99.99,VWS V14.00,2015-04-19 09:06:00,
2015-04-19 05:11:00,44.6,26.1,29.12,NNE,15,4.9,5.8,48,0.00,,,-99.99,VWS V14.00,2015-04-19 09:11:00,
2015-04-19 05:16:00,44.4,26.0,29.12,East,97,2.2,5.8,48,0.00,,,-99.99,VWS V14.00,2015-04-19 09:16:00,
2015-04-19 05:21:00,44.2,26.3,29.12,East,99,2.2,6.3,49,0.00,,,-99.99,VWS V14.00,2015-04-19 09:21:00,
2015-04-19 05:26:00,44.2,26.3,29.12,SE,127,3.6,8.7,49,0.00,,,-99.99,VWS V14.00,2015-04-19 09:26:00,
2015-04-19 05:31:00,44.2,25.8,29.09,East,81,4.9,6.3,48,0.00,,,-99.99,VWS V14.00,2015-04-19 09:31:00,
2015-04-19 05:36:00,44.1,25.6,29.09,East,95,0.0,6.3,48,0.00,,,-99.99,VWS V14.00,2015-04-19 09:36:00,
2015-04-19 05:41:00,43.9,25.5,29.09,NE,51,4.9,6.3,48,0.00,,,-99.99,VWS V14.00,2015-04-19 09:41:00,
2015-04-19 05:46:00,43.7,25.3,29.09,ENE,71,2.7,6.3,48,0.00,,,-99.99,VWS V14.00,2015-04-19 09:46:00,
2015-04-19 05:51:00,43.7,25.3,29.09,SE,136,5.8,6.3,48,0.00,,,-99.99,VWS V14.00,2015-04-19 09:51:00,
2015-04-19 05:56:00,43.7,25.3,29.09,ESE,108,3.6,6.3,48,0.00,,,-99.99,VWS V14.00,2015-04-19 09:56:00,
2015-04-19 06:01:00,43.5,25.1,29.09,ESE,111,0.0,5.4,48,0.00,,,-99.99,VWS V14.00,2015-04-19 10:01:00,
2015-04-19 06:07:00,43.5,25.1,29.09,ENE,75,4.0,7.6,48,0.00,,,-99.99,VWS V14.00,2015-04-19 10:07:00,
2015-04-19 06:12:00,43.5,25.1,29.12,East,84,3.1,7.6,48,0.00,,,-99.99,VWS V14.00,2015-04-19 10:12:00,
2015-04-19 06:17:00,43.5,25.1,29.12,SE,140,0.0,7.6,48,0.00,,,-99.99,VWS V14.00,2015-04-19 10:17:00,
2015-04-19 06:22:00,43.2,24.8,29.12,ESE,112,4.0,7.6,48,0.00,,,-99.99,VWS V14.00,2015-04-19 10:22:00,
2015-04-19 06:27:00,43.2,25.3,29.12,ENE,77,3.1,7.6,49,0.00,,,-99.99,VWS V14.00,2015-04-19 10:27:00,
2015-04-19 06:32:00,43.3,25.5,29.12,ESE,109,4.0,5.4,49,0.00,,,-99.99,VWS V14.00,2015-04-19 10:32:00,
2015-04-19 06:37:00,43.3,25.5,29.12,South,182,0.0,5.4,49,0.00,,,-99.99,VWS V14.00,2015-04-19 10:37:00,
2015-04-19 06:42:00,43.3,25.5,29.12,ESE,105,4.0,6.3,49,0.00,,,-99.99,VWS V14.00,2015-04-19 10:42:00,
2015-04-19 06:47:00,43.0,25.1,29.12,East,81,3.1,6.3,49,0.00,,,-99.99,VWS V14.00,2015-04-19 10:47:00,
2015-04-19 06:52:00,42.8,25.5,29.12,ENE,66,5.4,6.3,50,0.00,,,-99.99,VWS V14.00,2015-04-19 10:52:00,
2015-04-19 07:02:00,42.8,25.5,29.09,East,92,5.8,5.8,50,0.00,,,-99.99,VWS V14.00,2015-04-19 11:02:00,
2015-04-19 07:07:00,43.0,25.6,29.09,SE,127,2.7,5.8,50,0.00,,,-99.99,VWS V14.00,2015-04-19 11:07:00,
2015-04-19 07:12:00,43.2,25.8,29.09,ESE,107,3.1,6.3,50,0.00,,,-99.99,VWS V14.00,2015-04-19 11:12:00,
2015-04-19 07:17:00,43.2,25.8,29.09,ENE,73,2.7,7.6,50,0.00,,,-99.99,VWS V14.00,2015-04-19 11:17:00,
2015-04-19 07:22:00,43.3,26.0,29.09,ESE,114,4.5,7.6,50,0.00,,,-99.99,VWS V14.00,2015-04-19 11:22:00,
2015-04-19 07:27:00,43.3,26.0,29.09,East,81,2.7,7.6,50,0.00,,,-99.99,VWS V14.00,2015-04-19 11:27:00,
2015-04-19 07:32:00,43.3,26.0,29.09,East,99,2.2,5.8,50,0.00,,,-99.99,VWS V14.00,2015-04-19 11:32:00,
2015-04-19 07:37:00,43.3,26.0,29.09,East,100,3.6,5.8,50,0.00,,,-99.99,VWS V14.00,2015-04-19 11:37:00,
2015-04-19 07:42:00,43.5,26.1,29.09,East,82,3.1,7.6,50,0.00,,,-99.99,VWS V14.00,2015-04-19 11:42:00,
2015-04-19 07:52:00,44.4,27.0,29.09,ENE,76,4.0,7.6,50,0.00,,,-99.99,VWS V14.00,2015-04-19 11:52:00,
2015-04-19 07:58:00,44.6,27.1,29.09,ENE,70,0.0,7.6,50,0.00,,,-99.99,VWS V14.00,2015-04-19 11:58:00,
2015-04-19 08:03:00,45.3,27.8,29.09,East,87,3.6,5.4,50,0.00,,,-99.99,VWS V14.00,2015-04-19 12:03:00,
2015-04-19 08:08:00,46.2,28.6,29.09,NE,44,2.7,5.4,50,0.00,,,-99.99,VWS V14.00,2015-04-19 12:08:00,
2015-04-19 08:18:00,47.1,29.0,29.09,ENE,68,3.1,6.3,49,0.00,,,-99.99,VWS V14.00,2015-04-19 12:18:00,
2015-04-19 08:23:00,48.0,29.8,29.09,East,93,0.0,6.3,49,0.00,,,-99.99,VWS V14.00,2015-04-19 12:23:00,
2015-04-19 08:28:00,48.9,30.1,29.09,East,92,5.4,8.3,48,0.00,,,-99.99,VWS V14.00,2015-04-19 12:28:00,
2015-04-19 08:33:00,49.3,29.9,29.09,ENE,78,3.1,5.8,47,0.00,,,-99.99,VWS V14.00,2015-04-19 12:33:00,
2015-04-19 08:38:00,50.0,30.6,29.09,SE,129,3.1,6.3,47,0.00,,,-99.99,VWS V14.00,2015-04-19 12:38:00,
2015-04-19 08:43:00,50.7,31.2,29.06,ENE,65,2.7,6.3,47,0.00,,,-99.99,VWS V14.00,2015-04-19 12:43:00,
2015-04-19 08:48:00,50.7,30.7,29.06,East,84,0.0,6.3,46,0.00,,,-99.99,VWS V14.00,2015-04-19 12:48:00,
2015-04-19 08:53:00,50.7,30.2,29.06,SE,129,3.1,8.1,45,0.00,,,-99.99,VWS V14.00,2015-04-19 12:53:00,
2015-04-19 08:58:00,50.9,30.3,29.06,SSE,158,6.3,8.1,45,0.00,,,-99.99,VWS V14.00,2015-04-19 12:58:00,
2015-04-19 09:03:00,51.4,30.8,29.06,SE,134,3.1,5.8,45,0.00,,,-99.99,VWS V14.00,2015-04-19 13:03:00,
2015-04-19 09:08:00,52.2,30.9,29.06,SE,138,2.7,8.1,44,0.00,,,-99.99,VWS V14.00,2015-04-19 13:08:00,
2015-04-19 09:13:00,53.1,31.7,29.06,ESE,112,0.0,8.3,44,0.00,,,-99.99,VWS V14.00,2015-04-19 13:13:00,
2015-04-19 09:18:00,53.2,31.3,29.06,ESE,113,5.8,8.3,43,0.00,,,-99.99,VWS V14.00,2015-04-19 13:18:00,
2015-04-19 09:23:00,52.7,30.3,29.06,East,99,4.9,12.8,42,0.00,,,-99.99,VWS V14.00,2015-04-19 13:23:00,
2015-04-19 09:28:00,53.1,31.2,29.06,ESE,110,6.3,12.8,43,0.00,,,-99.99,VWS V14.00,2015-04-19 13:28:00,
2015-04-19 09:33:00,52.9,30.4,29.06,ESE,113,4.0,6.3,42,0.00,,,-99.99,VWS V14.00,2015-04-19 13:33:00,
2015-04-19 09:38:00,53.4,30.9,29.06,SE,125,4.0,6.3,42,0.00,,,-99.99,VWS V14.00,2015-04-19 13:38:00,
2015-04-19 09:44:00,53.6,31.1,29.03,ESE,118,7.6,8.1,42,0.00,,,-99.99,VWS V14.00,2015-04-19 13:44:00,
2015-04-19 09:49:00,54.3,31.1,29.03,East,96,6.3,9.6,41,0.00,,,-99.99,VWS V14.00,2015-04-19 13:49:00,
2015-04-19 09:54:00,55.0,31.8,29.03,SE,138,3.1,9.6,41,0.00,,,-99.99,VWS V14.00,2015-04-19 13:54:00,
2015-04-19 09:59:00,55.8,32.4,29.03,SSE,147,4.0,9.6,41,0.00,,,-99.99,VWS V14.00,2015-04-19 13:59:00,
2015-04-19 10:04:00,56.1,31.5,29.03,NE,37,4.5,8.1,39,0.00,,,-99.99,VWS V14.00,2015-04-19 14:04:00,
2015-04-19 10:09:00,55.9,31.4,29.03,ESE,107,7.6,8.7,39,0.00,,,-99.99,VWS V14.00,2015-04-19 14:09:00,
2015-04-19 10:14:00,57.4,32.7,29.03,SE,140,8.1,10.5,39,0.00,,,-99.99,VWS V14.00,2015-04-19 14:14:00,
2015-04-19 10:19:00,58.3,33.5,29.03,ENE,78,3.6,10.5,39,0.00,,,-99.99,VWS V14.00,2015-04-19 14:19:00,
2015-04-19 10:24:00,59.0,32.8,29.03,ESE,112,4.0,10.5,37,0.00,,,-99.99,VWS V14.00,2015-04-19 14:24:00,
2015-04-19 10:29:00,58.6,33.1,29.03,SE,139,4.0,10.5,38,0.00,,,-99.99,VWS V14.00,2015-04-19 14:29:00,
2015-04-19 10:34:00,58.3,32.2,29.03,East,83,4.9,8.3,37,0.00,,,-99.99,VWS V14.00,2015-04-19 14:34:00,
2015-04-19 10:39:00,57.7,31.7,29.03,East,96,5.8,12.8,37,0.00,,,-99.99,VWS V14.00,2015-04-19 14:39:00,
2015-04-19 10:44:00,57.4,31.3,29.00,ENE,67,4.0,12.8,37,0.00,,,-99.99,VWS V14.00,2015-04-19 14:44:00,
2015-04-19 10:49:00,57.4,31.3,29.00,ESE,113,6.3,12.8,37,0.00,,,-99.99,VWS V14.00,2015-04-19 14:49:00,
2015-04-19 10:54:00,58.5,32.3,29.00,ENE,63,3.6,12.8,37,0.00,,,-99.99,VWS V14.00,2015-04-19 14:54:00,
2015-04-19 10:59:00,61.0,35.9,29.00,ENE,76,4.0,12.8,39,0.00,,,-99.99,VWS V14.00,2015-04-19 14:59:00,
2015-04-19 11:04:00,62.6,36.0,29.00,ENE,73,2.7,11.0,37,0.00,,,-99.99,VWS V14.00,2015-04-19 15:04:00,
2015-04-19 11:09:00,63.5,36.1,29.00,NE,56,5.4,11.0,36,0.00,,,-99.99,VWS V14.00,2015-04-19 15:09:00,
2015-04-19 11:15:00,63.9,35.7,29.00,SE,137,2.7,11.0,35,0.00,,,-99.99,VWS V14.00,2015-04-19 15:15:00,
2015-04-19 11:20:00,64.9,37.4,29.00,East,79,3.1,11.0,36,0.00,,,-99.99,VWS V14.00,2015-04-19 15:20:00,
2015-04-19 11:25:00,63.3,34.5,29.00,ENE,75,3.6,11.0,34,0.00,,,-99.99,VWS V14.00,2015-04-19 15:25:00,
2015-04-19 11:30:00,62.8,34.8,29.00,NE,54,3.6,11.0,35,0.00,,,-99.99,VWS V14.00,2015-04-19 15:30:00,
2015-04-19 11:35:00,63.0,34.9,29.00,East,83,3.6,8.7,35,0.00,,,-99.99,VWS V14.00,2015-04-19 15:35:00,
2015-04-19 11:40:00,63.5,35.4,29.00,ESE,108,4.0,8.7,35,0.00,,,-99.99,VWS V14.00,2015-04-19 15:40:00,
2015-04-19 11:45:00,64.0,35.9,28.97,NE,56,4.9,8.7,35,0.00,,,-99.99,VWS V14.00,2015-04-19 15:45:00,
2015-04-19 11:50:00,63.9,35.7,28.97,ENE,67,4.0,8.7,35,0.00,,,-99.99,VWS V14.00,2015-04-19 15:50:00,
2015-04-19 11:55:00,64.6,34.8,28.97,ENE,76,2.7,10.5,33,0.00,,,-99.99,VWS V14.00,2015-04-19 15:55:00,
2015-04-19 12:00:00,64.8,35.8,28.97,ESE,111,5.4,5.4,34,0.00,,,-99.99,VWS V14.00,2015-04-19 16:00:00,
2015-04-19 12:05:00,64.8,35.0,28.97,SSE,152,8.3,8.3,33,0.00,,,-99.99,VWS V14.00,2015-04-19 16:05:00,
2015-04-19 12:10:00,64.9,35.2,28.97,SE,133,5.8,9.6,33,0.00,,,-99.99,VWS V14.00,2015-04-19 16:10:00,
2015-04-19 12:15:00,65.1,36.1,28.94,ESE,109,6.3,9.6,34,0.00,,,-99.99,VWS V14.00,2015-04-19 16:15:00,
2015-04-19 12:20:00,66.2,36.3,28.94,East,85,4.9,9.6,33,0.00,,,-99.99,VWS V14.00,2015-04-19 16:20:00,
2015-04-19 12:25:00,66.2,36.3,28.94,ENE,59,5.8,9.6,33,0.00,,,-99.99,VWS V14.00,2015-04-19 16:25:00,
2015-04-19 12:31:00,65.3,34.7,28.94,East,99,6.3,8.1,32,0.00,,,-99.99,VWS V14.00,2015-04-19 16:31:00,
2015-04-19 12:36:00,65.5,35.6,28.94,East,91,4.0,8.3,33,0.00,,,-99.99,VWS V14.00,2015-04-19 16:36:00,
2015-04-19 12:41:00,65.3,35.5,28.94,East,96,2.2,10.1,33,0.00,,,-99.99,VWS V14.00,2015-04-19 16:41:00,
2015-04-19 12:46:00,64.6,34.8,28.94,SE,126,6.3,10.1,33,0.00,,,-99.99,VWS V14.00,2015-04-19 16:46:00,
2015-04-19 12:56:00,64.4,34.7,28.94,ESE,102,5.8,10.1,33,0.00,,,-99.99,VWS V14.00,2015-04-19 16:56:00,
2015-04-19 13:01:00,64.6,34.8,28.94,NE,39,4.0,6.3,33,0.00,,,-99.99,VWS V14.00,2015-04-19 17:01:00,
2015-04-19 13:06:00,64.9,35.2,28.94,ENE,75,3.6,10.5,33,0.00,,,-99.99,VWS V14.00,2015-04-19 17:06:00,
2015-04-19 13:11:00,66.0,36.1,28.94,ESE,120,4.0,10.5,33,0.00,,,-99.99,VWS V14.00,2015-04-19 17:11:00,
2015-04-19 13:16:00,67.5,37.4,28.91,East,100,3.1,12.8,33,0.00,,,-99.99,VWS V14.00,2015-04-19 17:16:00,
2015-04-19 13:21:00,67.8,36.9,28.91,ENE,76,5.8,12.8,32,0.00,,,-99.99,VWS V14.00,2015-04-19 17:21:00,
2015-04-19 13:26:00,66.7,36.0,28.91,SE,129,6.3,15.0,32,0.00,,,-99.99,VWS V14.00,2015-04-19 17:26:00,
2015-04-19 13:31:00,67.6,36.8,28.91,ESE,111,3.6,5.8,32,0.00,,,-99.99,VWS V14.00,2015-04-19 17:31:00,
2015-04-19 13:36:00,67.8,36.9,28.91,ESE,111,3.6,8.3,32,0.00,,,-99.99,VWS V14.00,2015-04-19 17:36:00,
2015-04-19 13:41:00,67.6,36.0,28.91,ENE,78,4.0,9.2,31,0.00,,,-99.99,VWS V14.00,2015-04-19 17:41:00,